Kimball, NE

8:41 PM MST on January 20, 2017 (GMT -0700)
Kimball Municipal-Arraj

Weather History for KIBM - December, 2012

Change the Weather History Date:

Saturday, December 1, 2012

  Actual Average (KSNY) Record (KSNY)
Temperature  
Mean Temperature 50 °F -  
Max Temperature 64 °F 39 °F 68 °F (1970)
Min Temperature 36 °F 14 °F -16 °F (1985)
Degree Days  
Heating Degree Days 15    
Moisture  
Dew Point 25 °F    
Average Humidity 40    
Maximum Humidity 56    
Minimum Humidity 22    
Precipitation  
Precipitation 0.00 in - - ()
Sea Level Pressure  
Sea Level Pressure 29.90 in    
Wind  
Wind Speed 14 mph (West)    
Max Wind Speed 33 mph    
Max Gust Speed 41 mph    
Visibility 10 miles    
Events      
Averages and records for this station are not official NWS values.
T = Trace of Precipitation, MM = Missing Value Source: NWS Daily Summary

Daily Weather History Graph

Daily Weather History Graph

Search for Another Location

Airport or City:

Trip Planner

Search our weather history database for the weather conditions in past years. The results will help you decide how hot, cold, wet, or windy it might be!

Date:

Astronomy

Dec. 01, 2012 Rise Set
Actual Time 8:01 AM CST 5:26 PM CST
Civil Twilight 7:30 AM CST 5:57 PM CST
Nautical Twilight 6:56 AM CST 6:31 PM CST
Astronomical Twilight 6:23 AM CST 7:04 PM CST
Moon 8:19 PM CST (12/1) 10:15 AM CST (12/1)
Length of Visible Light 10h 26m
Length of Day
9h 25m
Waning Gibbous, 91% of the Moon is Illuminated
Dec 1
Waning Gibbous
Dec 6
Last Quarter
Dec 13
New
Dec 19
First Quarter
Dec 28
Full

Hourly Weather History & Observations

Time (CST) Temp. Windchill Dew Point Humidity Pressure Visibility Wind Dir Wind Speed Gust Speed Precip Events Conditions
12:15 AM 36.5 °F 28.7 °F 22.1 °F 56% 29.83 in 10.0 mi WNW 11.5 mph - N/A   Clear
12:35 AM 36.9 °F 30.7 °F 22.1 °F 55% 29.83 in 10.0 mi WNW 8.1 mph - N/A   Clear
12:55 AM 37.6 °F 31.6 °F 21.9 °F 53% 29.83 in 10.0 mi WNW 8.1 mph - N/A   Clear
1:15 AM 37.4 °F 32.8 °F 21.9 °F 54% 29.83 in 10.0 mi WNW 5.8 mph - N/A   Clear
1:35 AM 39.0 °F 32.3 °F 21.2 °F 49% 29.82 in 10.0 mi WNW 10.4 mph - N/A   Clear
1:55 AM 40.1 °F 34.1 °F 21.0 °F 47% 29.83 in 10.0 mi West 9.2 mph - N/A   Clear
2:15 AM 38.8 °F 32.6 °F 21.2 °F 49% 29.82 in 10.0 mi WNW 9.2 mph - N/A   Clear
2:55 AM 42.6 °F 36.8 °F 20.8 °F 42% 29.83 in 10.0 mi WNW 10.4 mph - N/A   Overcast
3:15 AM 42.1 °F 36.1 °F 21.2 °F 43% 29.83 in 10.0 mi WNW 10.4 mph - N/A   Overcast
3:35 AM 42.6 °F 37.8 °F 22.1 °F 44% 29.83 in 10.0 mi WNW 8.1 mph - N/A   Overcast
3:55 AM 44.1 °F 40.1 °F 22.5 °F 42% 29.83 in 10.0 mi WNW 6.9 mph - N/A   Overcast
4:15 AM 45.9 °F 40.4 °F 22.8 °F 40% 29.83 in 10.0 mi West 11.5 mph - N/A   Mostly Cloudy
4:35 AM 47.7 °F - 23.2 °F 38% 29.83 in 10.0 mi WNW 11.5 mph - N/A   Mostly Cloudy
5:15 AM 51.4 °F - 23.5 °F 34% 29.83 in 10.0 mi West 18.4 mph - N/A   Scattered Clouds
5:35 AM 53.2 °F - 25.3 °F 34% 29.82 in 10.0 mi WNW 26.5 mph 31.1 mph N/A   Clear
6:15 AM 54.5 °F - 29.1 °F 38% 29.85 in 10.0 mi WNW 27.6 mph 35.7 mph N/A   Clear
6:35 AM 52.9 °F - 29.7 °F 41% 29.86 in 10.0 mi WNW 25.3 mph 33.4 mph N/A   Clear
6:55 AM 50.9 °F - 30.0 °F 45% 29.86 in 10.0 mi West 21.9 mph 28.8 mph N/A   Clear
7:15 AM 50.0 °F - 30.2 °F 47% 29.87 in 10.0 mi WNW 23.0 mph - N/A   Clear
7:35 AM 48.7 °F - 30.0 °F 48% 29.89 in 10.0 mi West 18.4 mph - N/A   Clear
7:55 AM 48.7 °F - 29.8 °F 48% 29.89 in 10.0 mi West 19.6 mph - N/A   Clear
8:15 AM 46.4 °F 41.5 °F 29.3 °F 51% 29.90 in 10.0 mi West 10.4 mph - N/A   Clear
8:35 AM 46.6 °F - 29.8 °F 52% 29.90 in 10.0 mi West 12.7 mph - N/A   Clear
9:15 AM 50.4 °F - 30.0 °F 46% 29.91 in 10.0 mi West 11.5 mph - N/A   Clear
9:35 AM 50.9 °F - 30.2 °F 45% 29.89 in 10.0 mi West 16.1 mph - N/A   Clear
9:55 AM 53.6 °F - 29.1 °F 39% 29.90 in 10.0 mi WNW 12.7 mph - N/A   Clear
10:15 AM 55.0 °F - 29.7 °F 38% 29.90 in 10.0 mi WNW 17.3 mph 20.7 mph N/A   Clear
10:35 AM 58.3 °F - 29.5 °F 33% 29.91 in 10.0 mi West 17.3 mph - N/A   Clear
10:55 AM 61.0 °F - 28.4 °F 29% 29.90 in 10.0 mi West 31.1 mph - N/A   Clear
11:15 AM 61.0 °F - 28.0 °F 29% 29.91 in 10.0 mi West 31.1 mph 39.1 mph N/A   Clear
11:35 AM 61.7 °F - 28.2 °F 28% 29.92 in 10.0 mi West 27.6 mph 33.4 mph N/A   Clear
12:15 PM 62.4 °F - 27.7 °F 27% 29.89 in 10.0 mi West 29.9 mph 34.5 mph N/A   Clear
12:35 PM 63.7 °F - 25.7 °F 24% 29.90 in 10.0 mi West 33.4 mph 40.3 mph N/A   Clear
12:55 PM 64.0 °F - 25.7 °F 23% 29.90 in 10.0 mi West 31.1 mph 41.4 mph N/A   Clear
1:15 PM 61.3 °F - 25.7 °F 26% 29.90 in 10.0 mi West 28.8 mph 33.4 mph N/A   Clear
1:35 PM 61.5 °F - 25.7 °F 26% 29.90 in 10.0 mi West 24.2 mph 28.8 mph N/A   Clear
1:55 PM 62.4 °F - 25.2 °F 24% 29.89 in 10.0 mi West 26.5 mph 34.5 mph N/A   Clear
2:15 PM 62.1 °F - 25.0 °F 24% 29.89 in 10.0 mi West 21.9 mph 29.9 mph N/A   Clear
2:35 PM 63.5 °F - 24.1 °F 22% 29.88 in 10.0 mi West 28.8 mph 36.8 mph N/A   Clear
2:55 PM 63.7 °F - 24.3 °F 22% 29.89 in 10.0 mi West 23.0 mph 32.2 mph N/A   Clear
3:15 PM 63.5 °F - 24.8 °F 23% 29.89 in 10.0 mi West 17.3 mph - N/A   Clear
3:35 PM 62.2 °F - 23.7 °F 23% 29.90 in 10.0 mi West 24.2 mph - N/A   Clear
3:55 PM 60.6 °F - 25.5 °F 26% 29.92 in 10.0 mi NW 9.2 mph - N/A   Clear
4:15 PM 59.0 °F - 25.0 °F 27% 29.92 in 10.0 mi North 9.2 mph - N/A   Clear
4:35 PM 57.4 °F - 25.0 °F 29% 29.93 in 10.0 mi North 9.2 mph - N/A   Clear
4:55 PM 57.9 °F - 24.8 °F 28% 29.93 in 10.0 mi NNE 4.6 mph - N/A   Clear
5:15 PM 54.5 °F - 24.6 °F 31% 29.94 in 10.0 mi NNE 4.6 mph - N/A   Clear
5:35 PM 54.5 °F - 25.7 °F 33% 29.94 in 10.0 mi NW 8.1 mph - N/A   Clear
5:55 PM 52.0 °F - 25.5 °F 36% 29.94 in 10.0 mi NNW 6.9 mph - N/A   Clear
6:15 PM 52.0 °F - 25.9 °F 36% 29.94 in 10.0 mi NW 5.8 mph - N/A   Clear
6:35 PM 46.9 °F - 25.5 °F 43% 29.95 in 10.0 mi WNW 4.6 mph - N/A   Clear
6:55 PM 42.6 °F 37.8 °F 24.8 °F 49% 29.96 in 10.0 mi WSW 8.1 mph - N/A   Clear
7:15 PM 41.5 °F 35.4 °F 24.8 °F 51% 29.97 in 10.0 mi WSW 10.4 mph - N/A   Clear
7:35 PM 42.3 °F 37.9 °F 24.8 °F 50% 29.97 in 10.0 mi WSW 6.9 mph - N/A   Clear
7:55 PM 45.1 °F 39.5 °F 25.7 °F 47% 29.96 in 10.0 mi WSW 11.5 mph - N/A   Clear
8:15 PM 44.4 °F 39.5 °F 25.7 °F 48% 29.96 in 10.0 mi West 9.2 mph - N/A   Clear
8:35 PM 44.2 °F 41.0 °F 25.7 °F 48% 29.97 in 10.0 mi WNW 5.8 mph - N/A   Clear
8:55 PM 41.9 °F 36.9 °F 25.2 °F 52% 29.98 in 10.0 mi West 8.1 mph - N/A   Clear
9:15 PM 40.5 °F 34.6 °F 25.3 °F 55% 29.97 in 10.0 mi WSW 9.2 mph - N/A   Clear
9:35 PM 40.3 °F 33.9 °F 24.6 °F 54% 29.97 in 10.0 mi SW 10.4 mph - N/A   Clear
9:55 PM 42.1 °F 35.7 °F 23.9 °F 49% 29.98 in 10.0 mi SW 11.5 mph - N/A   Clear
10:15 PM 42.1 °F 35.7 °F 23.0 °F 47% 29.98 in 10.0 mi WSW 11.5 mph - N/A   Clear
10:35 PM 42.1 °F 36.6 °F 22.8 °F 46% 29.98 in 10.0 mi WSW 9.2 mph - N/A   Clear
10:55 PM 43.9 °F 38.8 °F 22.5 °F 43% 29.98 in 10.0 mi WSW 9.2 mph - N/A   Clear
11:15 PM 43.3 °F 38.1 °F 22.5 °F 44% 29.98 in 10.0 mi WSW 9.2 mph - N/A   Clear
11:35 PM 40.8 °F 34.5 °F 22.8 °F 49% 29.98 in 10.0 mi SW 10.4 mph 16.1 mph N/A   Clear
11:55 PM 40.1 °F 34.1 °F 22.6 °F 50% 29.98 in 10.0 mi WSW 9.2 mph - N/A   Clear